Joliet, IL

4:15 PM CDT on April 20, 2018 (GMT -0500)
Joliet Regional

Weather History for KJOT - June, 2013

Change the Weather History Date:

Wednesday, June 12, 2013

  Actual Average (KARR) Record (KARR)
Temperature  
Mean Temperature 77 °F -  
Max Temperature 90 °F 75 °F 95 °F (2017)
Min Temperature 63 °F 55 °F 45 °F (2006)
Cooling Degree Days 12    
Growing Degree Days 27 (Base 50)    
Moisture  
Dew Point 67 °F    
Average Humidity 80    
Maximum Humidity 96    
Minimum Humidity 47    
Precipitation  
Precipitation 1.71 in - - ()
Sea Level Pressure  
Sea Level Pressure 29.78 in    
Wind  
Wind Speed 5 mph (ESE)    
Max Wind Speed 26 mph    
Max Gust Speed 75 mph    
Visibility 8 miles    
Events Rain , Thunderstorm    
Averages and records for this station are not official NWS values.
T = Trace of Precipitation, MM = Missing Value Source: NWS Daily Summary

Daily Weather History Graph

Daily Weather History Graph

Search for Another Location

Airport or City:

Astronomy

Jun. 12, 2013 Rise Set
Actual Time 5:18 AM CDT 8:27 PM CDT
Civil Twilight 4:44 AM CDT 9:01 PM CDT
Nautical Twilight 4:00 AM CDT 9:44 PM CDT
Astronomical Twilight 3:09 AM CDT 10:36 PM CDT
Moon 8:59 AM CDT (6/12) 11:00 PM CDT (6/12)
Length of Visible Light 16h 16m
Length of Day
15h 08m
Waxing Crescent, 14% of the Moon is Illuminated
Jun 12
Waxing Crescent
Jun 16
First Quarter
Jun 23
Full
Jun 29
Last Quarter
Jul 8
New

Hourly Weather History & Observations

Time (CDT) Temp. Heat Index Dew Point Humidity Pressure Visibility Wind Dir Wind Speed Gust Speed Precip Events Conditions
12:15 AM 68.9 °F - 65.7 °F 89% 29.84 in 10.0 mi South 3.5 mph - N/A   Clear
12:35 AM 71.2 °F - 66.7 °F 86% 29.83 in 10.0 mi South 3.5 mph - N/A   Clear
12:55 AM 72.0 °F - 67.3 °F 85% 29.87 in 10.0 mi North 4.6 mph - N/A   Clear
1:15 AM 71.8 °F - 67.3 °F 86% 29.87 in 10.0 mi Calm Calm - N/A   Scattered Clouds
1:35 AM 72.1 °F - 67.3 °F 85% 29.87 in 10.0 mi Calm Calm - N/A   Clear
1:55 AM 70.9 °F - 66.9 °F 87% 29.87 in 10.0 mi Calm Calm - N/A   Clear
2:15 AM 70.5 °F - 66.4 °F 87% 29.87 in 10.0 mi North 3.5 mph - N/A   Clear
2:35 AM 70.3 °F - 66.2 °F 87% 29.87 in 10.0 mi NNE 4.6 mph - N/A   Clear
2:55 AM 70.0 °F - 66.2 °F 88% 29.87 in 10.0 mi North 5.8 mph - N/A   Clear
3:15 AM 69.6 °F - 65.7 °F 87% 29.88 in 10.0 mi Calm Calm - N/A   Clear
3:35 AM 67.8 °F - 65.5 °F 92% 29.87 in 10.0 mi Calm Calm - N/A   Clear
3:55 AM 68.5 °F - 65.5 °F 90% 29.88 in 10.0 mi Calm Calm - N/A   Clear
4:15 AM 66.9 °F - 65.1 °F 94% 29.86 in 7.0 mi SSW 3.5 mph - N/A   Clear
4:35 AM 67.1 °F - 65.3 °F 94% 29.86 in 7.0 mi South 5.8 mph - N/A   Clear
4:55 AM 68.4 °F - 66.2 °F 93% 29.85 in 7.0 mi South 3.5 mph - N/A   Clear
5:15 AM 67.6 °F - 64.9 °F 91% 29.85 in 7.0 mi Calm Calm - N/A   Clear
5:35 AM 66.9 °F - 64.9 °F 93% 29.86 in 7.0 mi Calm Calm - N/A   Clear
5:55 AM 67.1 °F - 65.5 °F 95% 29.87 in 5.0 mi NNE 3.5 mph - N/A   Clear
6:15 AM 69.8 °F - 66.2 °F 88% 29.88 in 7.0 mi Calm Calm - N/A   Clear
6:35 AM 69.8 °F - 66.9 °F 91% 29.88 in 7.0 mi Calm Calm - N/A   Clear
6:55 AM 70.9 °F - 66.7 °F 87% 29.92 in 10.0 mi West 3.5 mph - N/A   Clear
7:15 AM 71.6 °F - 68.0 °F 88% 29.90 in 7.0 mi ENE 3.5 mph - N/A   Clear
7:35 AM 71.8 °F - 67.5 °F 86% 29.92 in 10.0 mi Calm Calm - N/A   Light Drizzle
7:55 AM 73.0 °F - 67.6 °F 83% 29.91 in 7.0 mi Calm Calm - N/A   Scattered Clouds
8:15 AM 73.6 °F - 68.0 °F 83% 29.90 in 10.0 mi NNE 6.9 mph - N/A   Scattered Clouds
8:35 AM 73.4 °F - 67.3 °F 81% 29.90 in 10.0 mi NE 3.5 mph - N/A   Scattered Clouds
8:55 AM 73.9 °F - 67.5 °F 80% 29.90 in 7.0 mi NE 4.6 mph - N/A   Scattered Clouds
9:15 AM 74.7 °F - 67.6 °F 79% 29.89 in 10.0 mi NE 4.6 mph - N/A   Clear
9:35 AM 75.7 °F - 68.0 °F 77% 29.89 in 7.0 mi ENE 5.8 mph - N/A   Clear
9:55 AM 76.3 °F - 67.1 °F 73% 29.88 in 7.0 mi East 4.6 mph - N/A   Clear
10:15 AM 76.5 °F - 67.5 °F 74% 29.87 in 10.0 mi SE 6.9 mph - N/A   Clear
10:35 AM 76.8 °F - 69.1 °F 77% 29.86 in 7.0 mi SE 5.8 mph - N/A   Clear
10:55 AM 78.1 °F - 69.6 °F 75% 29.83 in 7.0 mi SE 6.9 mph - N/A   Clear
11:15 AM 78.4 °F - 70.0 °F 75% 29.78 in 10.0 mi SSE 9.2 mph 74.8 mph N/A   Clear
11:35 AM 78.8 °F - 70.3 °F 75% 29.74 in 10.0 mi SSE 12.7 mph 17.3 mph N/A   Clear
11:55 AM 78.8 °F - 70.9 °F 77% 29.74 in 10.0 mi South 11.5 mph - N/A   Clear
12:15 PM 79.9 °F - 71.2 °F 75% 29.74 in 10.0 mi South 8.1 mph - N/A   Clear
12:35 PM 81.5 °F 85.3 °F 70.5 °F 69% 29.74 in 10.0 mi South 12.7 mph 17.3 mph N/A   Clear
12:55 PM 82.0 °F 85.7 °F 69.6 °F 66% 29.76 in 10.0 mi SSW 13.8 mph 17.3 mph N/A   Clear
1:15 PM 84.9 °F 89.4 °F 70.3 °F 61% 29.76 in 10.0 mi SSW 8.1 mph 18.4 mph N/A   Clear
1:35 PM 86.2 °F 90.7 °F 70.0 °F 58% 29.77 in 10.0 mi SSW 10.4 mph - N/A   Clear
1:55 PM 88.2 °F 92.1 °F 68.4 °F 52% 29.78 in 10.0 mi SW 11.5 mph 23.0 mph N/A   Clear
2:15 PM 88.7 °F 93.0 °F 68.9 °F 52% 29.78 in 10.0 mi SW 10.4 mph 17.3 mph N/A   Clear
2:35 PM 89.2 °F 93.6 °F 69.1 °F 51% 29.76 in 10.0 mi SSW 11.5 mph 61.0 mph N/A   Clear
2:55 PM 87.8 °F 91.1 °F 67.8 °F 51% 29.74 in 10.0 mi SW 8.1 mph 17.3 mph N/A   Clear
3:15 PM 89.4 °F 94.4 °F 69.6 °F 52% 29.74 in 10.0 mi SSW 3.5 mph - N/A   Clear
3:35 PM 89.4 °F 93.5 °F 68.5 °F 50% 29.73 in 10.0 mi SW 4.6 mph - N/A   Clear
3:55 PM 90.5 °F 94.6 °F 68.4 °F 48% 29.71 in 10.0 mi South 5.8 mph - N/A   Clear
4:15 PM 90.1 °F 93.5 °F 67.3 °F 47% 29.70 in 10.0 mi SSW 5.8 mph - N/A   Clear
4:35 PM 87.4 °F 90.8 °F 67.8 °F 52% 29.69 in 10.0 mi Calm Calm - N/A Thunderstorm Scattered Clouds
4:55 PM 86.5 °F 90.3 °F 68.5 °F 55% 29.67 in 10.0 mi SE 3.5 mph - N/A Thunderstorm Scattered Clouds
5:15 PM 84.9 °F 88.5 °F 68.7 °F 58% 29.66 in 10.0 mi ESE 4.6 mph - N/A Thunderstorm Clear
5:35 PM 84.4 °F 87.1 °F 66.9 °F 56% 29.70 in 10.0 mi WNW 26.5 mph 35.7 mph N/A Thunderstorm Thunderstorm
5:55 PM 71.6 °F - 68.5 °F 90% 29.68 in 4.0 mi North 18.4 mph 28.8 mph 0.15 in Rain , Thunderstorm Heavy Thunderstorms and Rain
6:15 PM 71.4 °F - 69.3 °F 93% 29.67 in 4.0 mi North 15.0 mph 26.5 mph 0.12 in Rain , Thunderstorm Heavy Thunderstorms and Rain
6:35 PM 70.0 °F - 67.5 °F 92% 29.65 in 0.8 mi East 10.4 mph - 0.49 in Rain , Thunderstorm Heavy Thunderstorms and Rain
6:55 PM 69.8 °F - 68.0 °F 94% 29.64 in 10.0 mi NE 11.5 mph - 0.50 in Rain , Thunderstorm Light Thunderstorms and Rain
7:15 PM 69.4 °F - 68.0 °F 95% 29.65 in 5.0 mi NNE 12.7 mph - 0.01 in Rain , Thunderstorm Heavy Thunderstorms and Rain
7:35 PM 69.8 °F - 68.4 °F 95% 29.72 in 0.5 mi SSW 4.6 mph - 0.66 in Rain , Thunderstorm Heavy Thunderstorms and Rain
7:55 PM 68.5 °F - 67.1 °F 95% 29.62 in 3.0 mi SE 8.1 mph - 0.91 in Rain , Thunderstorm Thunderstorms and Rain
8:15 PM 68.5 °F - 67.1 °F 95% 29.63 in 10.0 mi SSE 3.5 mph - N/A Rain , Thunderstorm Light Thunderstorms and Rain
8:35 PM 69.8 °F - 68.2 °F 95% 29.61 in 10.0 mi Calm Calm - N/A Thunderstorm Mostly Cloudy
8:55 PM 70.0 °F - 68.5 °F 95% 29.62 in 10.0 mi ESE 6.9 mph - N/A Thunderstorm Thunderstorm
9:15 PM 69.4 °F - 67.8 °F 95% 29.61 in 10.0 mi Calm Calm - N/A   Scattered Clouds
9:35 PM 69.3 °F - 68.0 °F 96% 29.65 in 7.0 mi NNE 10.4 mph - N/A   Scattered Clouds
9:55 PM 69.3 °F - 67.6 °F 95% 29.65 in 10.0 mi NNE 8.1 mph - N/A Rain , Thunderstorm Light Thunderstorms and Rain
10:15 PM 68.9 °F - 67.3 °F 95% 29.67 in 7.0 mi NNE 9.2 mph - N/A Rain Light Rain
10:35 PM 68.4 °F - 66.9 °F 95% 29.66 in 4.0 mi NE 12.7 mph - 0.02 in   Overcast
10:55 PM 66.4 °F - 64.0 °F 92% 29.70 in 5.0 mi NNE 15.0 mph 20.7 mph 0.02 in Thunderstorm Mostly Cloudy
11:15 PM 65.3 °F - 62.8 °F 92% 29.71 in 5.0 mi NE 8.1 mph 18.4 mph 0.02 in Rain , Thunderstorm Heavy Thunderstorms and Rain
11:35 PM 64.4 °F - 62.1 °F 92% 29.71 in 7.0 mi NNE 5.8 mph - 0.12 in Rain , Thunderstorm Thunderstorms and Rain
11:55 PM 63.7 °F - 61.9 °F 94% 29.70 in 10.0 mi NE 6.9 mph - 0.13 in Rain Light Rain